Gainesville, GA

10:44 AM EDT on October 23, 2017 (GMT -0400)
Gilmer Memorial

Weather History for KGVL - June, 2013

Change the Weather History Date:

Thursday, June 6, 2013

  Actual Average Record
Temperature  
Mean Temperature 70 °F 74 °F  
Max Temperature 75 °F 83 °F 96 °F (1985)
Min Temperature 64 °F 64 °F 47 °F (1935)
Cooling Degree Days 5 9  
Month to date cooling degree days 57 50  
Year to date cooling degree days 202 225  
Since 1 June cooling degree days 57 50  
Growing Degree Days 20 (Base 50)    
Moisture  
Dew Point 65 °F    
Average Humidity 86    
Maximum Humidity 93    
Minimum Humidity 79    
Precipitation  
Precipitation 0.01 in 0.13 in 1.31 in (2005)
Month to date precipitation 0.89 0.82  
Year to date precipitation 15.81 23.74  
Sea Level Pressure  
Sea Level Pressure 29.89 in    
Wind  
Wind Speed 5 mph (ESE)    
Max Wind Speed 13 mph    
Max Gust Speed 16 mph    
Visibility 8 miles    
Events Rain    
T = Trace of Precipitation, MM = Missing Value Source: NWS Daily Summary

Daily Weather History Graph

Daily Weather History Graph

Search for Another Location

Airport or City:

Trip Planner

Search our weather history database for the weather conditions in past years. The results will help you decide how hot, cold, wet, or windy it might be!

Date:

Astronomy

Jun. 06, 2013 Rise Set
Actual Time 6:23 AM EDT 8:45 PM EDT
Civil Twilight 5:54 AM EDT 9:14 PM EDT
Nautical Twilight 5:18 AM EDT 9:49 PM EDT
Astronomical Twilight 4:39 AM EDT 10:29 PM EDT
Moon 4:59 AM EDT (6/6) 7:09 PM EDT (6/6)
Length of Visible Light 15h 20m
Length of Day
14h 21m
Waning Crescent, 4% of the Moon is Illuminated
Jun 6
Waning Crescent
Jun 8
New
Jun 16
First Quarter
Jun 23
Full
Jun 30
Last Quarter

Hourly Weather History & Observations

Time (EDT) Temp. Dew Point Humidity Pressure Visibility Wind Dir Wind Speed Gust Speed Precip Events Conditions
12:36 AM 66.2 °F 64.4 °F 94% 29.99 in 10.0 mi East 5.8 mph - N/A   Overcast
12:53 AM 66.9 °F 64.9 °F 93% 29.94 in 10.0 mi East 8.1 mph - 0.00 in Rain Light Rain
1:01 AM 66.2 °F 64.4 °F 94% 29.98 in 10.0 mi ESE 6.9 mph - 0.00 in Rain Light Rain
1:26 AM 66.2 °F 64.4 °F 94% 29.98 in 10.0 mi East 8.1 mph - 0.00 in   Mostly Cloudy
1:53 AM 66.9 °F 64.9 °F 93% 29.94 in 10.0 mi ENE 8.1 mph - 0.00 in Rain Light Rain
2:04 AM 66.2 °F 64.4 °F 94% 29.99 in 10.0 mi East 6.9 mph - 0.00 in Rain Light Rain
2:36 AM 66.2 °F 62.6 °F 88% 29.96 in 7.0 mi ENE 9.2 mph - 0.00 in Rain Light Rain
2:53 AM 64.9 °F 63.0 °F 93% 29.91 in 10.0 mi ENE 8.1 mph - 0.00 in   Overcast
3:08 AM 64.4 °F 62.6 °F 94% 29.94 in 10.0 mi ENE 8.1 mph - N/A   Overcast
3:24 AM 64.4 °F 62.6 °F 94% 29.94 in 10.0 mi NE 4.6 mph - N/A   Overcast
3:38 AM 64.4 °F 62.6 °F 94% 29.93 in 10.0 mi ENE 6.9 mph - N/A   Overcast
3:53 AM 64.9 °F 62.1 °F 90% 29.89 in 10.0 mi East 6.9 mph - N/A   Overcast
4:28 AM 64.4 °F 62.6 °F 94% 29.93 in 10.0 mi ENE 8.1 mph - N/A   Overcast
4:53 AM 64.9 °F 62.1 °F 90% 29.88 in 10.0 mi ENE 8.1 mph - N/A   Overcast
5:41 AM 64.4 °F 62.6 °F 94% 29.93 in 9.0 mi East 6.9 mph - N/A   Overcast
5:53 AM 64.9 °F 62.1 °F 90% 29.88 in 7.0 mi East 6.9 mph - N/A   Overcast
6:05 AM 64.4 °F 62.6 °F 94% 29.92 in 6.0 mi NE 4.6 mph - N/A   Overcast
6:39 AM 64.4 °F 62.6 °F 94% 29.92 in 10.0 mi ENE 6.9 mph - N/A   Overcast
6:53 AM 64.9 °F 63.0 °F 93% 29.88 in 10.0 mi ENE 5.8 mph - N/A   Overcast
7:53 AM 66.0 °F 63.0 °F 90% 29.89 in 10.0 mi ENE 5.8 mph - N/A   Overcast
8:46 AM 66.2 °F 64.4 °F 94% 29.94 in 4.0 mi East 4.6 mph - 0.00 in Rain Light Rain
8:53 AM 66.0 °F 64.0 °F 93% 29.90 in 2.5 mi ENE 5.8 mph - 0.00 in Rain Light Rain
9:00 AM 66.2 °F 64.4 °F 94% 29.93 in 3.0 mi East 4.6 mph - 0.00 in   Overcast
9:14 AM 66.2 °F 64.4 °F 94% 29.93 in 2.0 mi ENE 6.9 mph - 0.00 in   Overcast
9:27 AM 66.2 °F 64.4 °F 94% 29.93 in 1.8 mi East 5.8 mph - 0.00 in   Overcast
9:33 AM 66.2 °F 64.4 °F 94% 29.93 in 2.5 mi East 6.9 mph - 0.00 in   Overcast
9:49 AM 66.2 °F 64.4 °F 94% 29.94 in 2.0 mi East 5.8 mph - 0.00 in   Overcast
9:53 AM 66.9 °F 64.9 °F 93% 29.90 in 3.0 mi East 3.5 mph - 0.00 in   Overcast
10:36 AM 66.2 °F 64.4 °F 94% 29.94 in 2.0 mi East 4.6 mph - N/A   Overcast
10:44 AM 68.0 °F 64.4 °F 88% 29.94 in 1.8 mi East 4.6 mph - N/A   Overcast
10:49 AM 68.0 °F 66.2 °F 94% 29.94 in 2.5 mi SE 4.6 mph - N/A   Overcast
10:53 AM 68.0 °F 66.0 °F 93% 29.91 in 3.0 mi Variable 3.5 mph - N/A   Overcast
11:24 AM 69.8 °F 66.2 °F 88% 29.94 in 10.0 mi Calm Calm - N/A   Overcast
11:53 AM 70.0 °F 66.0 °F 87% 29.91 in 10.0 mi ESE 3.5 mph - N/A   Overcast
12:37 PM 71.6 °F 66.2 °F 83% 29.93 in 10.0 mi Calm Calm - N/A   Overcast
12:53 PM 72.0 °F 66.0 °F 81% 29.88 in 10.0 mi ESE 4.6 mph - N/A   Overcast
1:23 PM 73.4 °F 66.2 °F 78% 29.92 in 10.0 mi SE 5.8 mph - N/A   Overcast
1:51 PM 73.4 °F 66.2 °F 78% 29.90 in 10.0 mi Variable 4.6 mph - N/A   Overcast
1:53 PM 73.9 °F 66.9 °F 79% 29.86 in 10.0 mi WSW 3.5 mph - N/A   Overcast
2:14 PM 75.2 °F 66.2 °F 73% 29.90 in 10.0 mi SSE 5.8 mph - N/A   Mostly Cloudy
2:43 PM 71.6 °F 66.2 °F 83% 29.89 in 9.0 mi South 6.9 mph - 0.00 in Rain Light Rain
2:53 PM 71.1 °F 68.0 °F 90% 29.86 in 9.0 mi SSW 4.6 mph - 0.01 in Rain Light Rain
3:08 PM 71.6 °F 68.0 °F 88% 29.89 in 10.0 mi SSW 3.5 mph - 0.00 in   Overcast
3:32 PM 71.6 °F 66.2 °F 83% 29.88 in 10.0 mi SSW 6.9 mph - 0.00 in   Mostly Cloudy
3:41 PM 73.4 °F 66.2 °F 78% 29.88 in 10.0 mi SW 4.6 mph - 0.00 in   Mostly Cloudy
3:51 PM 73.4 °F 66.2 °F 78% 29.87 in 10.0 mi Variable 5.8 mph - 0.00 in   Mostly Cloudy
3:53 PM 73.0 °F 66.9 °F 81% 29.84 in 10.0 mi SSW 6.9 mph - 0.00 in   Mostly Cloudy
4:53 PM 73.0 °F 66.0 °F 79% 29.83 in 10.0 mi SSW 4.6 mph - N/A   Mostly Cloudy
5:53 PM 73.9 °F 66.9 °F 79% 29.81 in 10.0 mi SSE 4.6 mph - N/A   Overcast
6:53 PM 73.0 °F 66.9 °F 81% 29.80 in 10.0 mi SSE 3.5 mph - N/A   Clear
7:53 PM 72.0 °F 66.9 °F 84% 29.79 in 10.0 mi SE 5.8 mph - N/A   Mostly Cloudy
8:19 PM 71.6 °F 66.2 °F 83% 29.83 in 10.0 mi SE 5.8 mph - N/A   Mostly Cloudy
8:27 PM 69.8 °F 66.2 °F 88% 29.83 in 10.0 mi ESE 5.8 mph - N/A   Scattered Clouds
8:53 PM 70.0 °F 66.9 °F 90% 29.79 in 9.0 mi SE 3.5 mph - N/A   Partly Cloudy
9:18 PM 69.8 °F 66.2 °F 88% 29.82 in 7.0 mi Calm Calm - N/A   Mostly Cloudy
9:53 PM 69.1 °F 66.9 °F 93% 29.79 in 6.0 mi ESE 3.5 mph - N/A   Mostly Cloudy
10:07 PM 69.8 °F 66.2 °F 88% 29.83 in 8.0 mi SE 4.6 mph - N/A   Overcast
10:37 PM 69.8 °F 66.2 °F 88% 29.83 in 9.0 mi SE 3.5 mph - N/A   Overcast
10:53 PM 69.1 °F 66.0 °F 90% 29.80 in 9.0 mi SE 4.6 mph - N/A   Overcast
11:31 PM 69.8 °F 66.2 °F 88% 29.84 in 10.0 mi ESE 4.6 mph - N/A   Overcast
11:53 PM 69.1 °F 66.0 °F 90% 29.80 in 10.0 mi East 5.8 mph - N/A   Overcast
11:59 PM 69.8 °F 66.2 °F 88% 29.83 in 10.0 mi East 5.8 mph - N/A   Overcast